Volver al catálogo

ONEWEB-0308

ActivoComunicacionesPO
NORAD 49094·PAYLOAD·🇬🇧 United Kingdom

Lanzado Aug 21, 2021 desde Baikonur Cosmodrome

Loading…

Próximos Pases (próximas 24 horas)

TLE

ActualizadoSource: CelesTrak SupGP

Época: Sep 14, 2026, 23:01 UTC

1 49094C 21075V   26257.95919399 -.00000068  00000+0 -18832-3 0  2574
2 49094  87.8997 332.8413 0001891  99.8418 296.5471 13.12446011    16

Sigue ONEWEB-0308 en tiempo real con AllMySat

Download on the App Store